[[{"header":{"parameterUnit":"m.s-1","parameterCategory":1,"la1":30.2991,"la2":30.254,"lo1":-89.0895,"lo2":-89.0444,"dy":0.0017,"dx":0.0017,"nx":28,"ny":28,"refTime":"2026-02-17T09:00:00:Z","depth":0,"parameterNumber":2,"parameterNumberName":"U-component_of_WINDS"},"data":[0,0,0,0,0,0,0,0,0,0,0,0,0,0,0,0,0,0,0,0,0,0,0,0,0,0,0,0,0,0,0,0,0,0,0,0,0,0,0,0,0,0,0,0,0,0,0,0,0,0,0,0,0,0,0,0,0,0,-4.5828,-4.5829,0,-4.587,-4.587,-4.5871,-4.5764,-4.5761,-4.5758,-4.5755,-4.5796,-4.58,-4.5805,0,0,0,0,0,0,0,0,0,0,0,0,0,-4.5657,-4.566,-4.5828,-4.5829,-4.5829,-4.587,-4.587,-4.5871,-4.5765,-4.5761,-4.5757,-4.5753,-4.5795,-4.58,-4.5805,0,0,0,0,0,0,0,0,0,0,0,0,0,-4.5718,-4.5662,-4.5828,-4.5781,-4.5777,-4.587,-4.587,-4.5871,-4.5766,-4.5761,-4.5756,-4.5751,-4.5793,-4.5799,-4.5806,-4.5945,0,0,-4.5825,-4.5828,0,0,0,0,0,0,0,0,-4.5715,-4.5725,-4.5787,-4.5785,-4.578,-4.5807,-4.5825,-4.5896,-4.5767,-4.577,-4.5754,-4.5749,-4.5804,-4.5809,-4.5828,-4.5947,-4.5949,-4.5826,-4.5829,-4.5832,-4.5834,0,0,0,0,0,0,0,-4.5711,-4.5722,-4.5844,-4.5789,-4.5784,-4.5758,-4.5761,-4.5838,-4.5815,-4.5769,-4.5762,-4.5768,-4.5801,-4.5822,-4.5828,-4.5949,-4.5825,-4.5831,-4.5835,-4.5837,-4.6187,-4.6192,0,0,0,0,0,0,-4.5713,-4.5719,-4.5843,-4.5846,-4.5735,-4.5765,-4.5769,-4.5803,-4.5813,-4.581,-4.5773,-4.5763,-4.5814,-4.5821,-4.5829,-4.5993,-4.5832,-4.5838,-4.5842,-4.6181,-4.6188,-4.6194,0,0,0,0,0,0,-4.5709,-4.5725,-4.5841,-4.5781,-4.5793,-4.5774,-4.5813,-4.5807,-4.5828,-4.5816,-4.5811,-4.5798,-4.581,-4.582,-4.5917,-4.5993,-4.5841,-4.5847,-4.6175,-4.6183,-4.6191,-4.6323,0,0,0,0,0,0,-4.5705,-4.5724,-4.5776,-4.5783,-4.5797,-4.5929,-4.5818,-4.5811,-4.5839,-4.5827,-4.5839,-4.5836,-4.5807,-4.5909,-4.5924,-4.5999,-4.5852,-4.6168,-4.6179,-4.6188,-4.6312,-4.6335,-4.6355,0,0,0,0,0,-4.5699,-4.5811,-4.578,-4.5795,-4.5862,-4.5934,-4.5942,-4.5907,-4.5846,-4.5898,-4.5891,-4.5835,-4.5983,-4.5919,-4.5936,-4.6014,-4.6163,-4.6176,-4.6188,-4.6302,-4.6331,-4.6354,0,0,0,0,0,0,-4.5814,-4.5811,-4.5776,-4.5894,-4.5915,-4.5916,-4.5981,-4.5937,-4.5976,-4.5963,-4.5918,-4.5921,-4.6027,-4.603,-4.596,-4.6151,-4.6063,-4.6079,-4.6144,-4.6171,-4.6192,-4.6188,-4.5857,0,0,0,0,0,-4.5853,-4.5911,-4.5906,-4.601,-4.6023,-4.6001,-4.6031,-4.6002,-4.6022,-4.603,-4.603,-4.6051,-4.6102,-4.6137,-4.6183,-4.6313,-4.6314,-4.6375,-4.6396,-4.6414,-4.6428,-4.6498,-4.6525,-4.6234,-4.6234,-4.6234,0,0,-4.5934,-4.594,-4.5979,-4.6034,-4.6047,-4.6109,-4.6009,-4.6078,-4.6123,-4.604,-4.6132,-4.6134,-4.6154,-4.6269,-4.6319,-4.6275,-4.6509,-4.643,-4.6444,-4.6448,-4.6513,-4.6541,-4.6566,-4.6243,-4.6241,-4.624,0,0,-4.6113,-4.6123,-4.6212,-4.6228,-4.6249,-4.6234,-4.6256,-4.6264,-4.6262,-4.6354,-4.6293,-4.6347,-4.6436,-4.6454,-4.6475,-4.6665,-4.6615,-4.6681,-4.6792,-4.6861,-4.6884,-4.6904,-4.6972,-4.6997,-4.6695,-4.6696,-4.6696,0,-4.621,-4.6301,-4.6263,-4.6337,-4.6363,-4.6292,-4.6382,-4.6399,-4.6435,-4.6455,-4.6405,-4.6517,-4.6526,-4.6644,-4.6691,-4.671,-4.6733,-4.6679,-4.6884,-4.6903,-4.6921,-4.6986,-4.7012,-4.6704,-4.6703,-4.6702,-4.6701,0,-4.6421,-4.6485,-4.6554,-4.6592,-4.6626,-4.6707,-4.6682,-4.6721,-4.6691,-4.6681,-4.6777,-4.6786,-4.6833,-4.686,-4.683,-4.6974,-4.6946,-4.6891,-4.6801,-4.6958,-4.7017,-4.7042,-4.6715,-4.6712,-4.671,-4.6708,0,0,-4.667,-4.6688,-4.6714,-4.6731,-4.6751,-4.68,-4.6879,-4.6927,-4.6962,-4.699,-4.7055,-4.7134,-4.7083,-4.7107,-4.7079,-4.714,-4.729,-4.7077,-4.7077,-4.7116,-4.7451,-4.7493,-4.7522,-4.7258,-4.7263,-4.7267,-4.745,0,-4.6847,-4.6983,-4.6953,-4.7087,-4.7147,-4.7082,-4.7151,-4.7171,-4.7166,-4.7215,-4.7208,-4.7265,-4.7194,-4.7208,-4.7265,-4.726,-4.7357,-4.7246,-4.7319,-4.7322,-4.7315,-4.7553,-4.7596,-4.7768,-4.7473,-4.7477,-4.7479,0,-4.7071,-4.7109,-4.725,-4.7262,-4.7286,-4.7349,-4.7391,-4.744,-4.7462,-4.7453,-4.7482,-4.7443,-4.7522,-4.7433,-4.7542,-4.7468,-4.7496,-4.7499,-4.7504,-4.7509,-4.741,-4.7563,-4.7822,-4.7848,-4.7516,-4.7513,-4.751,0,-4.7239,-4.7326,-4.7421,-4.7438,-4.7455,-4.7501,-4.751,-4.7527,-4.7559,-4.7596,-4.7616,-4.7662,-4.7687,-4.7724,-4.7699,-4.7636,-4.7812,-4.7721,-4.7808,-4.7809,-4.7846,-4.7844,-4.8113,-4.7866,-4.7866,-4.7865,-4.7865,0,-4.7439,-4.7528,-4.7497,-4.7556,-4.7654,-4.7619,-4.7717,-4.7719,-4.7736,-4.7794,-4.7741,-4.7797,-4.776,-4.7814,-4.7795,-4.7888,-4.79,-4.7896,-4.7889,-4.79,-4.7901,-4.7917,-4.7904,-4.7872,-4.7871,-4.7869,-4.7868,0,-4.7643,-4.7626,-4.7726,-4.7735,-4.774,-4.7812,-4.7819,-4.7874,-4.7866,-4.794,-4.7956,-4.7942,-4.8002,-4.7982,-4.8046,-4.8033,-4.8152,-4.8131,-4.8145,-4.8139,-4.8227,-4.8219,-4.8515,-4.8552,-4.8282,-4.8285,-4.8287,0,-4.7771,-4.7838,-4.7855,-4.7891,-4.7905,-4.7963,-4.7995,-4.7964,-4.8,-4.8032,-4.8083,-4.8139,-4.8182,-4.8282,-4.8277,-4.8327,-4.8306,-4.8406,-4.8313,-4.8322,-4.8307,-4.8303,-4.831,-4.8424,-4.8428,-4.843,-4.8432,0,-4.8001,-4.799,-4.8039,-4.8086,-4.8127,-4.8162,-4.8192,-4.8225,-4.8195,-4.8238,-4.83,-4.8334,-4.84,-4.8457,-4.8502,-4.8511,-4.8468,-4.8462,-4.8485,-4.8496,-4.8501,-4.85,-4.8195,-4.8455,-4.8453,-4.8451,-4.845,-4.8449,-4.8171,-4.8228,-4.8249,-4.8306,-4.8326,-4.8357,-4.841,-4.8409,-4.846,-4.8512,-4.849,-4.8562,-4.8584,-4.8641,-4.8657,-4.8712,-4.8673,-4.8706,-4.8714,-4.8723,-4.8734,-4.8494,-4.872,-4.872,-4.8719,-4.8719,-4.8718,0,-4.8398,-4.8409,-4.8462,-4.8507,-4.8552,-4.8509,-4.8541,-4.8581,-4.8645,-4.867,-4.8715,-4.8786,-4.8842,-4.8843,-4.8895,-4.8939,-4.8921,-4.8954,-4.895,-4.8953,-4.8766,-4.8741,-4.8968,-4.8968,-4.8968,-4.8968,-4.8968,-4.8968,-4.8521,-4.8616,-4.8608,-4.8713,-4.8723,-4.8794,-4.8816,-4.8844,-4.8864,-4.8947,-4.8993,-4.8994,-4.901,-4.9063,-4.9112,-4.9111,-4.9133,-4.9174,-4.9165,-4.8991,-4.8966,-4.8942,-4.8918,-4.9179,-4.9179,-4.9347,-4.9349,-4.935]},{"header":{"parameterUnit":"m.s-1","parameterCategory":1,"la1":30.2991,"la2":30.254,"lo1":-89.0895,"lo2":-89.0444,"dy":0.0017,"dx":0.0017,"nx":28,"ny":28,"refTime":"2026-02-17T09:00:00:Z","depth":0,"parameterNumber":3,"parameterNumberName":"V-component_of_WINDS"},"data":[0,0,0,0,0,0,0,0,0,0,0,0,0,0,0,0,0,0,0,0,0,0,0,0,0,0,0,0,0,0,0,0,0,0,0,0,0,0,0,0,0,0,0,0,0,0,0,0,0,0,0,0,0,0,0,0,0,0,2.178,2.178,0,2.1823,2.1823,2.1824,2.186,2.186,2.186,2.1861,2.1902,2.1903,2.1904,0,0,0,0,0,0,0,0,0,0,0,0,0,2.1728,2.1729,2.178,2.178,2.1781,2.1823,2.1823,2.1824,2.186,2.186,2.1861,2.1861,2.1902,2.1903,2.1904,0,0,0,0,0,0,0,0,0,0,0,0,0,2.1759,2.1729,2.178,2.1804,2.1806,2.1822,2.1823,2.1824,2.1859,2.186,2.1861,2.1861,2.1902,2.1903,2.1904,2.1899,0,0,2.1907,2.1908,0,0,0,0,0,0,0,0,2.1757,2.1761,2.18,2.1802,2.1805,2.1836,2.182,2.1849,2.1859,2.1839,2.1861,2.1861,2.188,2.1883,2.1889,2.1901,2.1903,2.1907,2.1908,2.1909,2.1909,0,0,0,0,0,0,0,2.1755,2.1759,2.1797,2.18,2.1804,2.1812,2.1817,2.1826,2.1855,2.1841,2.1844,2.1848,2.1881,2.1888,2.1891,2.1903,2.1907,2.1908,2.1909,2.1909,2.1915,2.1914,0,0,0,0,0,0,2.1749,2.1757,2.1795,2.1798,2.1782,2.1813,2.1818,2.1826,2.1856,2.1861,2.1848,2.185,2.1886,2.1889,2.1892,2.1889,2.1909,2.191,2.191,2.1915,2.1914,2.1914,0,0,0,0,0,0,2.1748,2.1752,2.1794,2.1778,2.1784,2.1813,2.1821,2.1826,2.1833,2.1861,2.1866,2.1849,2.1887,2.1891,2.1898,2.1891,2.191,2.1911,2.1916,2.1915,2.1914,2.1883,0,0,0,0,0,0,2.1746,2.1752,2.175,2.1778,2.1785,2.1798,2.1821,2.1827,2.1835,2.1838,2.1864,2.1868,2.1887,2.1896,2.1899,2.1893,2.1912,2.1916,2.1915,2.1914,2.1884,2.1881,2.1878,0,0,0,0,0,2.1744,2.1738,2.175,2.1754,2.1783,2.1798,2.1802,2.1824,2.1835,2.1833,2.1851,2.1868,2.1892,2.1896,2.19,2.1894,2.1917,2.1916,2.1914,2.1886,2.1881,2.1878,0,0,0,0,0,0,2.1707,2.1742,2.1755,2.1758,2.1775,2.1804,2.1802,2.1819,2.1832,2.1834,2.1861,2.1867,2.1871,2.1883,2.1888,2.1892,2.1906,2.1906,2.1883,2.188,2.1876,2.1873,2.1913,0,0,0,0,0,2.17,2.1709,2.1739,2.1738,2.1746,2.1773,2.178,2.1796,2.1814,2.1821,2.184,2.1856,2.1868,2.1874,2.1886,2.1887,2.1893,2.1885,2.1882,2.1879,2.1878,2.1881,2.1877,2.191,2.191,2.191,0,0,2.1683,2.1704,2.1707,2.1732,2.1746,2.1755,2.1778,2.1786,2.1793,2.1822,2.183,2.1845,2.1865,2.1869,2.1871,2.1879,2.1871,2.1877,2.1875,2.1876,2.1879,2.1876,2.1873,2.1909,2.1909,2.1909,0,0,2.1658,2.1675,2.1677,2.1692,2.1715,2.1733,2.1734,2.1761,2.1772,2.1781,2.1803,2.1812,2.183,2.1844,2.1854,2.1837,2.1853,2.184,2.1823,2.1825,2.1823,2.1821,2.1815,2.1813,2.1839,2.1839,2.1839,0,2.1635,2.165,2.1676,2.1683,2.1694,2.1722,2.1725,2.1738,2.1763,2.1769,2.1778,2.1804,2.1819,2.1828,2.1824,2.183,2.1832,2.1837,2.1821,2.1819,2.1818,2.1813,2.1811,2.1838,2.1838,2.1838,2.1838,0,2.1621,2.1631,2.163,2.1655,2.1665,2.167,2.1697,2.1704,2.172,2.1738,2.1747,2.1767,2.1784,2.1788,2.1803,2.1799,2.1803,2.1816,2.1831,2.1813,2.1809,2.1807,2.1835,2.1836,2.1836,2.1837,0,0,2.1572,2.1613,2.1612,2.1625,2.1654,2.1662,2.1668,2.1687,2.1693,2.171,2.1716,2.1733,2.1746,2.1757,2.1774,2.1776,2.1762,2.1789,2.179,2.1784,2.1761,2.175,2.1748,2.1774,2.1773,2.1773,2.1759,0,2.1552,2.1566,2.1591,2.1597,2.1607,2.1636,2.1642,2.166,2.1677,2.1688,2.1706,2.1718,2.1734,2.1741,2.1744,2.1763,2.1758,2.1765,2.178,2.178,2.1774,2.1746,2.1735,2.172,2.1758,2.1757,2.1757,0,2.153,2.1547,2.1555,2.1584,2.159,2.1594,2.1614,2.1624,2.1646,2.1658,2.1672,2.1691,2.17,2.1714,2.1728,2.1731,2.1739,2.175,2.175,2.1752,2.1767,2.1747,2.1716,2.1714,2.1755,2.1755,2.1755,0,2.1494,2.1519,2.1527,2.1537,2.1572,2.1575,2.1589,2.1612,2.1622,2.1639,2.1646,2.1663,2.1673,2.1686,2.171,2.1718,2.1721,2.1736,2.1731,2.173,2.173,2.1729,2.17,2.1735,2.1735,2.1735,2.1735,0,2.1469,2.1473,2.1512,2.1517,2.1523,2.1551,2.1556,2.1573,2.1593,2.1602,2.1627,2.1635,2.1666,2.1678,2.1696,2.1705,2.1709,2.1719,2.1724,2.1717,2.1716,2.1722,2.1724,2.1734,2.1734,2.1734,2.1735,0,2.1429,2.1456,2.1467,2.15,2.1508,2.1511,2.1539,2.1545,2.1565,2.1576,2.158,2.161,2.1625,2.1651,2.1673,2.1685,2.169,2.1699,2.1683,2.1686,2.168,2.168,2.1653,2.1651,2.1687,2.1687,2.1686,0,2.1411,2.1415,2.1449,2.1458,2.1472,2.1485,2.1496,2.1525,2.1535,2.1562,2.1565,2.1582,2.1598,2.1621,2.1644,2.1662,2.1671,2.166,2.1673,2.1666,2.1671,2.167,2.1671,2.1657,2.1656,2.1656,2.1655,0,2.1377,2.1391,2.1406,2.1427,2.1439,2.1457,2.1475,2.148,2.1513,2.1524,2.154,2.1553,2.1576,2.1594,2.1615,2.163,2.1648,2.1651,2.1651,2.1643,2.1635,2.164,2.1675,2.1651,2.1652,2.1652,2.1652,2.1652,2.1348,2.1354,2.1379,2.1396,2.1413,2.143,2.1438,2.146,2.1474,2.1497,2.1513,2.1529,2.1552,2.1583,2.1597,2.1609,2.1618,2.1617,2.1617,2.1616,2.1614,2.1633,2.1613,2.1613,2.1614,2.1614,2.1614,0,2.1316,2.1334,2.1349,2.1375,2.1389,2.1407,2.1428,2.1438,2.1452,2.1473,2.1488,2.1508,2.1525,2.1551,2.1571,2.1576,2.1585,2.158,2.158,2.1583,2.1605,2.1604,2.1573,2.1573,2.1573,2.1573,2.1573,2.1573,2.13,2.1311,2.1328,2.1348,2.1366,2.1383,2.1394,2.141,2.1427,2.1448,2.1464,2.1481,2.1504,2.1526,2.1543,2.155,2.1556,2.1548,2.1558,2.1578,2.1581,2.1585,2.1584,2.1549,2.1549,2.1535,2.1535,2.1535]}]]